GW1285 Weather Reports


Display with metric or nautical units.
time (UTC)temp
F
wind
direction
speed
MPH
gust
MPH
rain 1hr
in
rain 24hr
in
rain mn
in
humidity
%
barometer
mb
20260502151612 41 162 1.0 1.0 0.00 0.00 0.00 63 1024.0
20260502151110 40 352 0.0 1.0 0.00 0.00 0.00 65 1024.1
20260502150607 40 30 3.0 3.0 0.00 0.00 0.00 67 1024.2
20260502150103 39 6 1.0 2.0 0.00 0.00 0.00 69 1023.8
20260502130452 28 154 0.0 0.0 0.00 0.00 0.00 83 1023.6
20260502123434 28 117 0.0 1.0 0.00 0.00 0.00 82 1023.6
20260502122932 28 265 2.0 3.0 0.00 0.00 0.00 83 1023.8
20260502122427 28 150 0.0 0.0 0.00 0.00 0.00 84 1023.4
20260502121926 28 150 0.0 0.0 0.00 0.00 0.00 84 1023.4
20260502121422 28 150 0.0 0.0 0.00 0.00 0.00 83 1023.6
20260502120921 28 148 0.0 1.0 0.00 0.00 0.00 84 1023.6
20260502120416 28 152 0.0 0.0 0.00 0.00 0.00 83 1023.5
20260502115914 28 152 0.0 0.0 0.00 0.00 0.00 82 1023.5
20260502115411 29 141 1.0 1.0 0.00 0.00 0.00 81 1023.6
20260502114907 29 141 1.0 1.0 0.00 0.00 0.00 81 1023.6
20260502114404 28 177 0.0 0.0 0.00 0.00 0.00 81 1023.8
20260502113901 29 177 0.0 1.0 0.00 0.00 0.00 81 1023.6
20260502113358 29 178 0.0 0.0 0.00 0.00 0.00 82 1023.8
20260502112856 29 178 0.0 0.0 0.00 0.00 0.00 80 1023.5
20260502112354 29 178 0.0 1.0 0.00 0.00 0.00 81 1023.9
20260502111851 29 177 0.0 0.0 0.00 0.00 0.00 80 1023.6
20260502111348 29 178 0.0 0.0 0.00 0.00 0.00 82 1023.5
20260502110846 29 178 0.0 1.0 0.00 0.00 0.00 82 1023.6
20260502110344 29 177 0.0 0.0 0.00 0.00 0.00 83 1023.6
20260502105841 29 177 0.0 0.0 0.00 0.00 0.00 82 1023.8
20260502105338 29 177 0.0 0.0 0.00 0.00 0.00 80 1023.6
20260502104835 30 177 0.0 1.0 0.00 0.00 0.00 80 1023.8
20260502104333 31 177 0.0 0.0 0.00 0.00 0.00 77 1023.8
20260502103830 30 177 0.0 0.0 0.00 0.00 0.00 78 1023.8
20260502103327 30 178 0.0 0.0 0.00 0.00 0.00 79 1023.6
20260502102824 30 179 0.0 0.0 0.00 0.00 0.00 79 1023.4
20260502102320 31 178 0.0 0.0 0.00 0.00 0.00 77 1023.5
20260502101818 31 178 0.0 0.0 0.00 0.00 0.00 77 1023.6
20260502101316 31 178 0.0 0.0 0.00 0.00 0.00 77 1023.8
20260502100814 31 183 0.0 0.0 0.00 0.00 0.00 76 1023.6
20260502100313 32 183 0.0 1.0 0.00 0.00 0.00 76 1023.9
20260502091247 32 197 0.0 0.0 0.00 0.00 0.00 74 1023.5
20260502090744 33 200 1.0 1.0 0.00 0.00 0.00 75 1023.5
20260502090241 33 225 0.0 0.0 0.00 0.00 0.00 71 1023.4
20260502071142 35 192 0.0 0.0 0.00 0.00 0.00 67 1023.3
20260502070640 36 192 0.0 1.0 0.00 0.00 0.00 68 1023.6
20260502070137 37 139 0.0 0.0 0.00 0.00 0.00 66 1023.5
20260502065635 37 255 0.0 1.0 0.00 0.00 0.00 64 1023.5
20260502065133 37 249 0.0 0.0 0.00 0.00 0.00 66 1023.4
20260502064632 38 249 0.0 0.0 0.00 0.00 0.00 62 1023.4
20260502064128 38 102 0.0 1.0 0.00 0.00 0.00 61 1023.4
20260502063626 40 158 0.0 1.0 0.00 0.00 0.00 58 1022.9
20260502063124 40 178 0.0 1.0 0.00 0.00 0.00 57 1023.4
20260502062620 41 73 1.0 1.0 0.00 0.00 0.00 56 1023.0
20260502062118 41 66 1.0 6.0 0.00 0.00 0.00 55 1022.9
20260502061616 40 70 1.0 1.0 0.00 0.00 0.00 57 1023.2
20260502061114 40 119 0.0 1.0 0.00 0.00 0.00 57 1023.0
20260502060613 41 102 0.0 1.0 0.00 0.00 0.00 58 1022.9
20260502060110 42 158 1.0 1.0 0.00 0.00 0.00 57 1023.0
20260502055608 41 222 2.0 3.0 0.00 0.00 0.00 54 1023.0
20260502055106 41 179 1.0 2.0 0.00 0.00 0.00 57 1023.0
20260502054605 41 158 2.0 2.0 0.00 0.00 0.00 58 1023.0
20260502054102 41 110 1.0 2.0 0.00 0.00 0.00 57 1022.9
20260502053558 41 184 3.0 5.0 0.00 0.00 0.00 58 1023.0
20260502053056 42 216 3.0 3.0 0.00 0.00 0.00 55 1023.0
20260502052554 42 182 0.0 2.0 0.00 0.00 0.00 54 1022.8
20260502052052 42 93 1.0 3.0 0.00 0.00 0.00 53 1022.7
20260502051550 42 172 2.0 2.0 0.00 0.00 0.00 54 1022.5
20260502051048 42 175 2.0 2.0 0.00 0.00 0.00 57 1022.8
20260502050543 44 151 5.0 6.0 0.00 0.00 0.00 55 1022.8
20260502050040 44 180 2.0 2.0 0.00 0.00 0.00 51 1023.0
20260502045537 44 170 0.0 2.0 0.00 0.00 0.00 51 1022.9
20260502045034 44 200 1.0 2.0 0.00 0.00 0.00 52 1022.9
20260502044531 44 190 3.0 5.0 0.00 0.00 0.00 50 1022.5
20260502044027 44 152 0.0 1.0 0.00 0.00 0.00 53 1022.8
20260502043525 44 176 2.0 2.0 0.00 0.00 0.00 51 1022.7
20260502043021 44 178 1.0 2.0 0.00 0.00 0.00 50 1022.5
20260502042516 44 202 0.0 1.0 0.00 0.00 0.00 50 1022.5
20260502042014 44 149 2.0 2.0 0.00 0.00 0.00 50 1022.1
20260502041512 44 170 0.0 0.0 0.00 0.00 0.00 52 1022.4
20260502041008 45 171 0.0 1.0 0.00 0.00 0.00 48 1022.3
20260502040505 45 141 1.0 1.0 0.00 0.00 0.00 48 1022.1
20260502040003 46 112 0.0 1.0 0.00 0.00 0.00 47 1022.2
20260502035457 46 102 0.0 1.0 0.00 0.00 0.00 48 1022.1
20260502034955 46 122 1.0 2.0 0.00 0.00 0.00 48 1021.7
20260502034454 47 121 1.0 2.0 0.00 0.00 0.00 47 1021.7
20260502033952 47 184 0.0 1.0 0.00 0.00 0.00 47 1021.8
20260502033449 47 154 1.0 2.0 0.00 0.00 0.00 47 1021.3
20260502032946 48 152 1.0 3.0 0.00 0.00 0.00 46 1021.3
20260502032442 48 122 2.0 2.0 0.00 0.00 0.00 46 1021.3
20260502031939 48 144 1.0 2.0 0.00 0.00 0.00 46 1021.5
20260502031438 48 144 1.0 2.0 0.00 0.00 0.00 47 1021.3
20260502030936 48 130 2.0 2.0 0.00 0.00 0.00 45 1021.3
20260502030434 48 182 1.0 3.0 0.00 0.00 0.00 46 1021.2
20260502025931 49 141 1.0 3.0 0.00 0.00 0.00 45 1021.1
20260502025428 49 124 1.0 2.0 0.00 0.00 0.00 46 1021.0
20260502024926 49 146 1.0 2.0 0.00 0.00 0.00 46 1021.2
20260502024424 50 139 1.0 2.0 0.00 0.00 0.00 45 1021.1
20260502023922 50 133 2.0 2.0 0.00 0.00 0.00 45 1021.1
20260502023419 50 134 2.0 3.0 0.00 0.00 0.00 43 1021.0
20260502022916 50 146 1.0 2.0 0.00 0.00 0.00 43 1020.9
20260502022412 51 91 1.0 2.0 0.00 0.00 0.00 41 1020.9
20260502021909 53 147 0.0 2.0 0.00 0.00 0.00 43 1021.0
20260502021407 54 121 1.0 1.0 0.00 0.00 0.00 43 1021.1
20260502020904 56 28 1.0 1.0 0.00 0.00 0.00 35 1020.7
20260502020402 56 14 1.0 3.0 0.00 0.00 0.00 36 1021.1
20260502015858 57 15 3.0 3.0 0.00 0.00 0.00 37 1020.6
20260502015355 57 8 1.0 1.0 0.00 0.00 0.00 36 1020.9
20260502014853 57 14 1.0 2.0 0.00 0.00 0.00 37 1021.0
20260502014349 58 356 1.0 2.0 0.00 0.00 0.00 37 1020.7
20260502013845 59 251 0.0 1.0 0.00 0.00 0.00 34 1020.9
20260502013341 60 231 0.0 3.0 0.00 0.00 0.00 32 1021.0
20260502012838 61 275 0.0 2.0 0.00 0.00 0.00 31 1020.5
20260502012336 61 296 1.0 3.0 0.00 0.00 0.00 30 1020.7
20260502011833 61 283 1.0 3.0 0.00 0.00 0.00 31 1020.5
20260502011329 61 284 3.0 6.0 0.00 0.00 0.00 29 1020.7
20260502010827 61 248 3.0 5.0 0.00 0.00 0.00 30 1020.7
20260502010323 62 330 3.0 6.0 0.00 0.00 0.00 28 1020.6
20260502005820 62 263 2.0 6.0 0.00 0.00 0.00 29 1020.7
20260502005318 62 240 2.0 5.0 0.00 0.00 0.00 29 1020.6
20260502004815 61 265 0.0 5.0 0.00 0.00 0.00 28 1020.6
20260502004310 62 288 3.0 3.0 0.00 0.00 0.00 29 1020.9
20260502003809 62 38 3.0 5.0 0.00 0.00 0.00 28 1020.7
20260502003305 62 263 2.0 3.0 0.00 0.00 0.00 30 1020.7
20260502002801 62 278 1.0 6.0 0.00 0.00 0.00 31 1020.9
20260502002259 62 265 3.0 6.0 0.00 0.00 0.00 29 1020.7
20260502001756 62 290 4.0 6.0 0.00 0.00 0.00 27 1020.6
20260502001254 62 340 1.0 3.0 0.00 0.00 0.00 28 1020.7
20260502000752 63 264 4.0 5.0 0.00 0.00 0.00 27 1020.9
20260502000250 62 276 2.0 3.0 0.00 0.00 0.00 29 1020.9
20260501235744 62 314 0.0 5.0 0.00 0.00 0.00 28 1020.7
20260501235241 62 272 3.0 7.0 0.00 0.00 0.00 29 1021.2
20260501234737 63 329 3.0 5.0 0.00 0.00 0.00 28 1020.9
20260501234234 63 333 1.0 5.0 0.00 0.00 0.00 28 1021.0
20260501233732 62 256 3.0 5.0 0.00 0.00 0.00 25 1020.7
20260501233229 62 286 3.0 5.0 0.00 0.00 0.00 27 1020.7
20260501232724 62 254 4.0 10.0 0.00 0.00 0.00 27 1020.9
20260501232222 62 252 1.0 8.0 0.00 0.00 0.00 28 1020.7
20260501231719 62 260 3.0 5.0 0.00 0.00 0.00 26 1020.7
20260501231217 62 249 5.0 7.0 0.00 0.00 0.00 25 1020.9
20260501230715 62 282 3.0 6.0 0.00 0.00 0.00 28 1020.7
20260501230214 63 257 0.0 7.0 0.00 0.00 0.00 29 1021.0
20260501225711 62 247 2.0 3.0 0.00 0.00 0.00 26 1021.0
20260501225208 62 334 3.0 5.0 0.00 0.00 0.00 27 1021.0
20260501224704 62 257 3.0 6.0 0.00 0.00 0.00 26 1021.1
20260501224201 62 287 5.0 6.0 0.00 0.00 0.00 25 1021.0
20260501223658 61 247 3.0 3.0 0.00 0.00 0.00 25 1021.1
20260501223154 62 274 4.0 7.0 0.00 0.00 0.00 27 1021.1
20260501222650 62 311 4.0 6.0 0.00 0.00 0.00 28 1021.2
20260501222148 62 202 1.0 5.0 0.00 0.00 0.00 29 1021.1
20260501221644 62 272 5.0 7.0 0.00 0.00 0.00 27 1021.5
20260501221141 62 261 4.0 7.0 0.00 0.00 0.00 28 1021.3
20260501220639 60 263 2.0 7.0 0.00 0.00 0.00 30 1021.1
20260501220136 60 311 4.0 5.0 0.00 0.00 0.00 28 1021.5
20260501215633 61 308 5.0 9.0 0.00 0.00 0.00 29 1021.6
20260501215128 62 324 5.0 7.0 0.00 0.00 0.00 26 1021.6
20260501214623 61 246 1.0 5.0 0.00 0.00 0.00 29 1021.6
20260501214119 60 243 5.0 8.0 0.00 0.00 0.00 27 1021.5
20260501213616 61 259 5.0 6.0 0.00 0.00 0.00 28 1021.6
20260501213112 60 270 2.0 5.0 0.00 0.00 0.00 25 1021.8
20260501212609 59 294 3.0 6.0 0.00 0.00 0.00 28 1021.8
20260501212106 60 277 4.0 7.0 0.00 0.00 0.00 27 1021.8
20260501211602 60 278 3.0 6.0 0.00 0.00 0.00 30 1021.8
20260501211100 60 293 1.0 7.0 0.00 0.00 0.00 32 1022.1
20260501210556 59 260 1.0 3.0 0.00 0.00 0.00 37 1022.2
20260501210053 59 289 5.0 8.0 0.00 0.00 0.00 35 1022.2
20260501205550 58 296 5.0 8.0 0.00 0.00 0.00 36 1022.3
20260501205048 58 266 3.0 5.0 0.00 0.00 0.00 37 1021.9
20260501204543 57 285 2.0 6.0 0.00 0.00 0.00 38 1021.9
20260501204039 57 238 3.0 5.0 0.00 0.00 0.00 37 1022.2
20260501203536 57 343 3.0 6.0 0.00 0.00 0.00 37 1022.3
20260501203034 57 272 2.0 5.0 0.00 0.00 0.00 39 1022.3
20260501202531 57 255 3.0 8.0 0.00 0.00 0.00 39 1022.3
20260501202027 56 347 2.0 3.0 0.00 0.00 0.00 39 1022.4
20260501201525 57 26 2.0 5.0 0.00 0.00 0.00 41 1022.3
20260501201021 57 290 2.0 5.0 0.00 0.00 0.00 39 1022.5
20260501200518 57 274 1.0 5.0 0.00 0.00 0.00 38 1022.4
20260501200016 57 241 0.0 2.0 0.00 0.00 0.00 36 1022.5
20260501195513 57 295 2.0 6.0 0.00 0.00 0.00 39 1022.8
20260501195008 57 252 3.0 6.0 0.00 0.00 0.00 39 1022.4
20260501194504 56 284 3.0 6.0 0.00 0.00 0.00 38 1022.8
20260501194000 57 354 4.0 5.0 0.00 0.00 0.00 40 1022.7
20260501193458 55 341 2.0 3.0 0.00 0.00 0.00 45 1022.7
20260501192955 56 258 3.0 5.0 0.00 0.00 0.00 43 1022.7
20260501192453 55 223 1.0 6.0 0.00 0.00 0.00 46 1022.5
20260501191950 55 247 3.0 5.0 0.00 0.00 0.00 44 1022.8
20260501191447 54 29 4.0 8.0 0.00 0.00 0.00 45 1022.9
20260501190944 54 18 5.0 6.0 0.00 0.00 0.00 46 1022.8
20260501190440 53 130 2.0 2.0 0.00 0.00 0.00 53 1023.0
20260501185935 54 65 1.0 3.0 0.00 0.00 0.00 46 1023.0
20260501185431 53 100 0.0 2.0 0.00 0.00 0.00 45 1023.0
20260501184927 53 116 3.0 5.0 0.00 0.00 0.00 45 1023.2
20260501184424 54 29 4.0 6.0 0.00 0.00 0.00 47 1023.2
20260501183918 55 223 1.0 5.0 0.00 0.00 0.00 47 1023.3
20260501183416 53 224 2.0 7.0 0.00 0.00 0.00 47 1023.4
20260501182912 52 314 2.0 6.0 0.00 0.00 0.00 47 1023.3
20260501182410 53 82 1.0 3.0 0.00 0.00 0.00 46 1023.3
20260501181906 54 21 2.0 3.0 0.00 0.00 0.00 48 1023.4
20260501181403 52 208 1.0 5.0 0.00 0.00 0.00 51 1023.3
20260501180900 53 289 2.0 3.0 0.00 0.00 0.00 55 1023.5
20260501180357 53 303 2.0 3.0 0.00 0.00 0.00 47 1023.5
20260501175854 52 279 3.0 3.0 0.00 0.00 0.00 51 1023.6
20260501175350 51 69 2.0 7.0 0.00 0.00 0.00 50 1023.6
20260501174847 50 104 1.0 3.0 0.00 0.00 0.00 50 1023.8
20260501174345 50 296 3.0 5.0 0.00 0.00 0.00 51 1023.8
20260501173842 50 252 5.0 8.0 0.00 0.00 0.00 52 1024.0
20260501173340 50 91 1.0 6.0 0.00 0.00 0.00 52 1024.0
20260501172835 50 0 3.0 5.0 0.00 0.00 0.00 50 1024.0
20260501172330 49 273 2.0 6.0 0.00 0.00 0.00 50 1023.9
20260501171826 49 340 2.0 3.0 0.00 0.00 0.00 51 1023.8
20260501171324 49 242 2.0 5.0 0.00 0.00 0.00 51 1023.9
20260501170820 49 264 0.0 6.0 0.00 0.00 0.00 53 1024.2
20260501170317 49 346 1.0 3.0 0.00 0.00 0.00 51 1024.0
20260501165814 49 240 1.0 5.0 0.00 0.00 0.00 55 1024.0
20260501165312 48 273 1.0 3.0 0.00 0.00 0.00 59 1023.9
20260501164810 47 18 0.0 2.0 0.00 0.00 0.00 61 1023.9
20260501164307 47 56 2.0 3.0 0.00 0.00 0.00 61 1024.2
20260501163803 47 250 1.0 3.0 0.00 0.00 0.00 60 1024.2
20260501163300 47 5 2.0 3.0 0.00 0.00 0.00 61 1024.1
20260501162756 46 311 2.0 2.0 0.00 0.00 0.00 64 1024.0
20260501162253 46 4 2.0 2.0 0.00 0.00 0.00 65 1024.0
20260501161750 44 214 0.0 3.0 0.00 0.00 0.00 65 1024.0
20260501161247 44 32 3.0 3.0 0.00 0.00 0.00 66 1024.1
20260501160743 44 282 1.0 1.0 0.00 0.00 0.00 69 1024.1
20260501160241 42 10 2.0 3.0 0.00 0.00 0.00 68 1024.1
20260501155738 43 73 1.0 3.0 0.00 0.00 0.00 70 1024.2
20260501155235 43 305 1.0 1.0 0.00 0.00 0.00 68 1023.9
20260501154732 42 84 1.0 2.0 0.00 0.00 0.00 68 1024.2
20260501154229 42 204 0.0 1.0 0.00 0.00 0.00 70 1024.1
20260501153726 41 19 1.0 3.0 0.00 0.00 0.00 71 1024.4
20260501153223 41 245 1.0 2.0 0.00 0.00 0.00 72 1024.4
20260501152720 40 340 2.0 5.0 0.00 0.00 0.00 73 1024.1
20260501152217 39 272 1.0 2.0 0.00 0.00 0.00 72 1024.0